Regional Weather Roundup
Issued by NWS Green Bay, WI

Home | Current Version | Previous Version | Text Only | Print | Product List | Glossary On
Versions: 1 2 3 4 5 6 7 8 9 10 11 12 13 14 15 16 17 18 19 20 21 22 23 24 25 26 27 28 29 30 31 32 33 34 35 36 37 38 39 40 41 42 43 44 45 46 47 48 49 50
000
ASUS43 KGRB 250811
RWRGRB

NORTH-CENTRAL AND NORTHEAST WISCONSIN REGIONAL WEATHER ROUNDUP
NATIONAL WEATHER SERVICE GREEN BAY WI
300 AM CDT MON SEP 25 2017

WIZ005-009-010>012-018-019-250900-
NORTH CENTRAL WISCONSIN

CITY           SKY/WX    TMP DP  RH WIND       PRES   REMARKS
IRONWOOD       PTCLDY    71  61  70 SW10      29.91S
MANITOWISH WTR NOT AVBL
ARBOR VITAE    CLEAR     69  62  76 S6        29.96S
EAGLE RIVER    CLEAR     65  57  77 CALM      29.96F
LAND O LAKES   CLEAR     67  59  74 S3        29.98S
RHINELANDER    CLEAR     70  61  73 SW6       29.98S
PHILLIPS       PTCLDY    67  62  83 S3        29.96R
ANTIGO         CLEAR     63  60  90 S6        29.99S
TOMAHAWK       PTCLDY    62  58  87 CALM      29.97S
MERRILL        CLEAR     66  61  83 S5        29.97F
$$

WIZ013-073-250900-
NORTHEAST WISCONSIN

CITY           SKY/WX    TMP DP  RH WIND       PRES   REMARKS
IRON MOUNTAIN  CLEAR     67  61  81 SE6       29.95F
MARINETTE      CLEAR     69  62  78 SW5       29.97F
OCONTO         PTCLDY    62  59  90 CALM      29.97S
$$

WIZ017-030-035>037-045-250900-
CENTRAL WISCONSIN

CITY           SKY/WX    TMP DP  RH WIND       PRES   REMARKS
MEDFORD        CLEAR     63  59  85 CALM      29.97S
WAUSAU         CLEAR     64  60  87 SE5       29.96S
MOSINEE        CLEAR     63  59  88 SE6       29.98F
MARSHFIELD     CLEAR     65  59  81 S5        29.96F
WISC RAPIDS    CLEAR     64  60  87 CALM      29.97F
STEVENS POINT  CLEAR     62  60  95 CALM      29.98S
WAUPACA        CLEAR     65  64  97 CALM      29.97F
SHAWANO        CLEAR     69  62  77 CALM      29.96F
CLINTONVILLE   CLEAR     63  61  94 CALM      29.97F
WAUTOMA        CLEAR     61  60  97 CALM      29.98F
$$

WIZ038-039-048-051-250900-
FOX VALLEY

CITY           SKY/WX    TMP DP  RH WIND       PRES   REMARKS
NWS GREEN BAY  CLEAR     67  62  84 S5        29.98S
APPLETON       CLEAR     68  55  64 S3        29.97F
OSHKOSH        CLEAR     66  60  81 S6        29.97F
FOND DU LAC    CLEAR     66  59  78 S5        29.98F
$$

WIZ022-050-052-250900-
EAST CENTRAL WISCONSIN

CITY           SKY/WX    TMP DP  RH WIND       PRES   REMARKS
EPHRAIM        FAIR      65  62  89 CALM      29.98S
WASHINGTON ISL NOT AVBL
STURGEON BAY   CLEAR     70  60  70 S8        29.99S
MANITOWOC      CLEAR     66  62  87 CALM      30.00S
SHEBOYGAN      CLEAR     60  60 100 CALM      29.99F
$$

LMZ563-521-522-541>543-250900-
LAKESHORE

STATION/POSITION TIME  TEMP    WIND        PRES    VSBY  WAVE
                       AIR SEA DIR/SP/G                  HT/PER
                 (UTC) (F)     (DEG/KT/KT) (MB)    (MI)  (FT/S)
SHEBOYGAN LKSHOR 0800   71     210/  4/  5 1015.2S
KEWAUNEE LKSHORE 0742   66     180/  3/  6 1014.6F
NORTHPORT PIER   0740   69     150/  6/  9 1014.9S
N MID LAKE BUOY  0750   69 67  190/  8/  8 1015.6F         1/ 3
S GREEN BAY BUOY 0800   72 70  190/  6/  8 1014.7
SISTER BAY LKSHO 0804   69     160/  9/ 10   N/A
MENOMINEE LKSHOR 0742   72     200/  4/  5 1014.6S
$$




USA.gov is the U.S. government's official web portal to all federal, state and local government web resources and services.